Retour au catalogue

STARLINK-35719

ActifCommunicationsVLEO
NORAD 67183·PAYLOAD·🇺🇸 United States

Lancé Dec 17, 2025 depuis Cape Canaveral Space Force Station

Loading…

Prochains Passages (prochaines 24 heures)

TLE

FraisSource: CelesTrak SupGP

Époque: Sep 15, 2026, 03:11 UTC

1 67183C 25303W   26258.13312500  .00041179  00000+0  14913-2 0  2585
2 67183  43.0018 320.5653 0001304 264.8309   6.8418 15.27562816    18

Suivez STARLINK-35719 en temps réel avec AllMySat

Download on the App Store